This is the latest recevied weather packets stored in our database for station/object WX8ASH-13. If no packets are shown the sender has not sent any weather packets the latest 1 day(s).
| Time | Temp. | Humidity | Pressure | Rain* | Wind** | Luminosity | Snow |
|---|---|---|---|---|---|---|---|
| 1778055911 | 7.22° C | 99% | 1015.1 hPa | 1.02 mm | - | - | - |
| 1778055608 | 7.22° C | 100% | 1015.2 hPa | 1.27 mm | - | - | - |
| 1778055318 | 7.22° C | 100% | 1015 hPa | 1.78 mm | - | - | - |
| 1778055008 | 6.67° C | 100% | 1015 hPa | 2.03 mm | - | - | - |
| 1778054107 | 7.22° C | 99% | 1015.3 hPa | 2.54 mm | - | - | - |
| 1778053809 | 7.22° C | 99% | 1015.3 hPa | 2.79 mm | - | - | - |
| 1778053507 | 7.22° C | 99% | 1015.3 hPa | 2.79 mm | - | - | - |
| 1778053207 | 6.67° C | 99% | 1015.3 hPa | 3.05 mm | - | - | - |
| 1778052911 | 6.67° C | 99% | 1015.3 hPa | 2.79 mm | - | - | - |
| 1778052607 | 7.22° C | 99% | 1015.1 hPa | 3.05 mm | - | - | - |
| 1778052307 | 6.67° C | 99% | 1015 hPa | 3.05 mm | - | - | - |
| 1778052008 | 7.22° C | 99% | 1015 hPa | 3.05 mm | - | - | - |
| 1778051706 | 7.22° C | 99% | 1015 hPa | 2.79 mm | - | - | - |
| 1778051407 | 7.22° C | 99% | 1015 hPa | 2.79 mm | - | - | - |
| 1778051107 | 6.67° C | 99% | 1015 hPa | 2.54 mm | - | - | - |
| 1778050205 | 7.22° C | 99% | 1014.7 hPa | 2.03 mm | - | - | - |
| 1778049006 | 7.22° C | 99% | 1014.8 hPa | 1.78 mm | - | - | - |
| 1778048105 | 7.22° C | 99% | 1014.9 hPa | 2.79 mm | - | - | - |
| 1778047506 | 8.33° C | 99% | 1014.9 hPa | 2.54 mm | - | - | - |
| 1778046634 | 8.33° C | 99% | 1014.8 hPa | 2.54 mm | - | - | - |
| 1778046335 | 8.33° C | 99% | 1014.8 hPa | 2.29 mm | - | - | - |
| 1778046033 | 8.33° C | 99% | 1014.9 hPa | 2.54 mm | - | - | - |
| 1778045433 | 8.33° C | 99% | 1015 hPa | 2.54 mm | - | - | - |
| 1778044832 | 8.33° C | 99% | 0 hPa | 2.03 mm | - | - | - |
| 1778044232 | 8.89° C | 99% | 1008.8 hPa | 1.52 mm | - | - | - |
* Rain latest hour (hover to see other rain measurements)
** Current wind speed in m/s (hover to see current wind gust speed)